Wind_Speed
15 21 26 25 25 23 21 20 18 20 19 18 19 19 19 20 20 21 22 22 21 21 21 22 20 18 13 15 14 12 12 13 13 13 13 14 14 14 15 15 15 13 13
14 19 20 24 26 26 19 21 17 17 17 19 18 17 17 17 18 18 19 19 18 18 18 19 17 16 13 11 12 10 11 11 12 12 13 14 15 15 14 15 14 13 13
14 20 22 21 26 24 21 15 16 16 15 16 17 15 16 15 16 17 18 16 15 15 14 15 15 13 11 10 10 10 11 11 12 13 15 15 15 15 13 14 13 13 13
12 16 21 23 24 25 15 15 17 15 14 11 12 14 15 14 14 13 15 15 14 13 12 12 12 12 10 10 10 10 11 12 12 13 15 15 15 14 12 13 13 13 12
13 12 15 20 23 25 20 19 17 14 15 15 13 13 13 12 12 12 13 13 13 12 11 12 11 11 10 9 10 12 12 13 13 13 13 13 14 13 12 12 12 12 11
13 14 13 13 15 19 18 18 16 15 15 16 15 14 11 10 11 12 12 12 13 11 11 11 10 10 11 11 12 12 13 13 14 12 12 12 13 13 12 11 11 10 11
13 15 16 15 15 16 17 15 15 17 16 15 13 13 10 10 11 11 11 12 11 11 10 10 9 9 10 12 12 13 13 14 14 11 10 11 11 12 11 11 10 9 9
11 13 16 16 15 16 16 16 15 14 14 14 14 12 11 9 9 10 10 11 11 11 10 11 10 9 11 12 13 13 12 11 12 11 10 10 11 11 10 10 9 8 8
14 12 12 14 13 13 14 15 15 15 14 13 11 10 10 10 11 10 10 10 11 11 10 10 11 11 11 12 12 11 8 9 13 11 10 11 11 10 9 9 9 8 7
15 14 12 11 12 11 12 13 13 15 15 13 13 12 11 11 11 12 11 12 12 12 11 11 11 11 12 13 12 11 10 11 12 12 11 11 10 9 8 7 8 7 6
16 15 14 13 11 10 11 12 13 14 14 14 14 13 13 12 11 11 12 13 13 14 13 12 12 12 12 14 14 11 12 13 13 12 11 10 9 9 8 6 7 7 6
8 11 15 15 13 12 12 12 13 13 14 15 15 14 13 12 12 12 12 13 14 15 14 14 12 11 10 11 14 13 12 13 13 13 11 9 8 7 8 5 6 7 6
3 7 10 14 15 14 13 12 12 13 12 13 14 15 15 15 13 13 13 13 14 15 14 14 14 13 13 13 13 13 13 13 13 12 11 9 7 6 6 6 5 6 7
4 7 10 13 15 14 15 16 13 12 12 11 12 13 13 13 13 13 12 12 13 14 15 14 13 13 14 14 14 13 13 13 12 12 11 10 7 7 7 6 5 5 5
6 7 11 12 13 14 15 16 15 13 13 13 13 13 12 12 12 12 11 11 10 12 13 13 15 15 15 14 14 13 14 13 13 11 13 12 10 9 8 6 5 5 5
8 9 10 13 14 16 15 16 17 15 13 14 14 14 14 14 13 13 12 12 12 11 11 13 15 16 17 17 17 15 15 14 12 10 9 9 9 10 9 7 6 5 5
4 8 9 12 14 15 17 17 18 19 19 16 14 14 15 15 15 14 14 13 12 11 13 15 15 14 17 18 19 17 17 15 13 12 9 10 10 11 10 8 8 8 8
10 6 9 10 11 14 16 17 17 19 19 19 18 17 17 17 18 19 15 16 16 14 14 13 14 16 18 19 21 20 19 19 16 14 16 14 14 14 12 10 11 12 12
16 13 11 10 9 10 14 16 17 17 18 19 19 19 19 20 20 20 19 19 19 17 16 16 18 19 20 21 22 22 21 22 20 19 19 18 17 16 13 11 13 15 16
14 16 17 18 14 13 13 16 17 16 15 19 19 20 19 14 21 21 20 20 21 20 20 20 17 19 22 24 25 26 26 24 23 22 19 21 21 21 17 16 16 16 18
22 16 18 21 20 20 17 14 14 12 12 12 14 17 19 20 18 15 26 24 21 21 18 20 19 19 17 22 28 28 27 27 25 24 22 21 22 21 21 19 19 19 18
24 25 23 21 22 24 23 17 15 14 15 13 12 13 15 15 15 15 16 22 21 19 20 20 20 19 19 20 26 28 29 27 25 22 21 21 20 21 21 21 22 22 22
31 28 30 28 26 24 24 26 23 21 21 22 19 15 12 12 13 15 17 19 20 21 21 21 21 19 17 19 22 27 29 27 23 22 22 21 21 22 23 23 24 24 24
25 27 30 35 34 32 29 28 29 25 21 19 19 17 15 14 14 13 14 16 18 20 22 22 22 21 22 18 22 24 27 26 25 24 24 24 25 25 25 25 26 26 26
25 31 26 30 35 35 35 34 30 29 28 24 23 23 22 19 17 18 18 17 18 20 20 23 24 22 23 23 22 22 26 27 27 27 26 24 23 23 24 26 29 30 30
23 34 36 25 31 35 35 35 34 32 26 30 26 23 23 24 22 19 20 21 21 21 22 24 26 25 25 27 28 26 25 26 24 24 25 22 25 24 25 26 26 27 27
Wind_Direction
135 159 166 158 138 129 126 126 131 130 133 131 132 126 125 122 125 129 132 131 134 135 134 132 133 135 122 102 106 110 105 103 104 103 105 105 106 110 108 106 101 100 98
109 134 153 165 138 138 121 131 127 128 132 133 128 133 133 133 135 139 136 133 132 136 140 141 141 139 130 116 113 114 109 108 105 105 110 110 110 107 104 101 98 96 98
118 115 134 153 164 137 129 142 132 130 140 134 133 133 134 145 145 145 141 140 137 139 140 143 146 142 134 128 124 120 115 113 108 109 110 111 110 104 102 99 98 95 94
146 130 129 136 141 153 142 154 136 126 121 140 142 152 149 148 143 150 150 149 148 148 157 155 153 146 143 132 130 127 120 117 116 116 115 116 109 105 104 101 98 96 96
162 152 145 145 146 147 145 150 145 158 165 176 169 157 155 156 145 155 154 157 155 157 164 154 151 151 144 142 134 127 125 126 120 116 119 118 114 111 106 101 99 99 99
167 166 170 169 171 169 176 176 176 172 176 176 169 161 151 150 159 163 158 159 163 167 167 164 163 148 146 143 134 131 132 128 121 124 124 122 117 112 107 101 98 99 101
168 177 182 184 185 182 183 182 189 183 184 186 187 177 169 163 162 157 161 167 161 167 171 165 159 160 155 142 142 139 142 130 125 126 128 128 123 119 115 108 101 99 96
176 180 179 183 190 194 194 191 187 191 184 192 188 181 174 157 156 159 165 169 166 171 175 169 163 164 163 149 147 144 146 134 136 140 144 141 135 128 122 116 108 99 92
176 184 184 182 186 199 196 195 194 191 192 193 188 186 178 172 166 165 172 176 172 176 180 174 166 161 161 158 153 156 156 156 151 157 161 157 147 140 132 126 119 109 95
180 180 183 185 181 191 201 194 191 192 195 195 190 188 188 187 181 178 181 179 180 182 181 177 170 167 167 159 159 164 163 163 165 165 172 171 158 153 144 139 126 119 111
184 180 185 184 183 186 195 193 190 192 193 197 198 197 199 197 198 192 185 183 185 183 187 184 179 176 173 170 167 174 168 177 175 175 178 181 171 162 150 149 138 132 128
193 181 188 186 183 185 190 190 183 189 194 193 195 202 207 203 199 196 193 188 186 189 190 186 186 188 181 181 175 176 174 182 184 186 183 180 181 176 155 163 161 149 145
191 176 194 192 187 185 190 193 189 179 185 192 193 195 201 201 201 198 194 190 191 192 194 197 191 192 188 190 184 183 181 187 196 196 188 180 187 200 175 169 179 165 156
131 169 180 198 200 191 191 193 198 196 194 196 196 198 197 197 194 193 193 190 192 194 195 202 198 200 202 198 198 198 198 203 212 214 211 195 196 209 195 179 186 183 180
157 158 174 184 197 201 197 198 199 202 203 205 202 201 203 198 193 190 186 187 191 201 202 205 205 204 208 210 216 205 213 216 223 226 221 220 211 220 202 193 199 207 211
176 153 172 177 187 201 203 203 199 203 207 209 210 210 209 208 205 203 197 195 192 197 203 213 218 216 213 217 222 217 221 224 225 224 225 211 211 218 204 199 210 230 240
197 186 161 181 188 192 200 208 210 211 213 217 222 223 223 219 215 213 208 203 200 202 211 219 225 227 227 229 229 227 230 235 231 234 233 212 225 230 215 212 219 236 246
231 208 198 186 186 195 197 206 213 220 223 228 231 233 232 228 225 223 225 220 218 221 222 226 231 234 237 239 237 235 236 242 240 237 238 248 249 214 219 225 230 237 248
219 230 232 217 203 198 207 211 211 217 226 228 231 236 239 239 233 231 234 228 232 238 240 241 243 241 240 241 242 241 242 243 244 241 240 244 252 227 227 232 236 240 244
225 220 233 237 221 215 210 207 208 208 211 225 227 231 231 246 230 234 234 236 239 246 247 251 248 250 246 244 239 239 242 244 248 247 240 241 244 250 254 251 248 246 249
228 229 228 239 238 231 225 223 215 202 202 214 228 230 234 239 232 243 232 231 242 246 248 247 249 254 250 248 241 236 241 245 245 245 243 245 247 251 256 258 259 259 262
250 244 242 242 242 245 241 233 233 228 215 210 208 221 228 233 234 237 221 222 231 234 237 245 254 261 255 254 242 233 236 241 245 250 252 250 251 253 253 257 259 258 259
270 263 266 257 253 253 249 241 235 228 227 218 211 207 218 227 228 228 232 236 241 245 245 247 252 254 255 248 241 235 234 238 244 247 253 256 250 253 256 260 260 261 257
267 271 271 270 260 255 251 252 245 243 238 241 236 227 221 226 237 239 240 244 247 252 252 253 252 252 249 247 245 238 238 242 246 247 248 254 258 260 261 263 262 262 263
271 273 283 269 264 257 250 253 253 247 248 238 239 239 237 235 238 247 251 253 255 257 257 255 253 252 252 250 247 244 243 245 248 250 249 251 255 258 259 260 259 262 262
276 263 267 275 264 255 251 243 243 251 249 251 241 241 244 244 245 247 256 261 261 264 266 267 264 253 257 251 244 242 242 244 251 256 259 256 258 256 261 262 264 267 267
Height
3146 3148 3150 3152 3154 3158 3161 3163 3166 3167 3171 3172 3175 3176 3178 3179 3182 3183 3185 3187 3189 3191 3192 3194 3196 3197 3197 3198 3199 3201 3201 3201 3203 3203 3205 3206 3207 3209 3209 3210 3211 3212 3212
3149 3148 3152 3156 3157 3160 3162 3166 3169 3170 3173 3174 3176 3178 3180 3181 3185 3187 3188 3190 3191 3193 3194 3196 3198 3198 3199 3201 3202 3204 3204 3204 3204 3206 3207 3209 3210 3211 3212 3212 3213 3214 3215
3151 3151 3153 3158 3160 3162 3165 3168 3170 3173 3175 3176 3179 3180 3182 3185 3187 3189 3190 3192 3194 3196 3196 3197 3199 3200 3201 3202 3204 3206 3206 3206 3207 3209 3210 3211 3213 3213 3215 3215 3215 3216 3217
3154 3156 3157 3159 3162 3165 3168 3170 3172 3175 3176 3178 3181 3182 3184 3187 3188 3191 3192 3193 3195 3197 3198 3199 3201 3202 3203 3204 3206 3207 3208 3209 3211 3212 3213 3214 3215 3216 3217 3217 3218 3219 3219
3156 3158 3160 3162 3166 3167 3170 3171 3174 3176 3180 3182 3182 3184 3186 3189 3188 3191 3193 3195 3196 3198 3200 3200 3202 3203 3204 3207 3207 3207 3209 3211 3212 3214 3216 3217 3217 3218 3219 3220 3220 3221 3221
3157 3159 3161 3164 3167 3169 3171 3173 3175 3177 3181 3182 3184 3186 3187 3188 3190 3192 3194 3196 3198 3200 3200 3201 3203 3204 3205 3206 3208 3210 3212 3213 3214 3217 3219 3219 3220 3220 3221 3222 3223 3223 3223
3159 3160 3163 3165 3168 3170 3172 3175 3177 3180 3181 3184 3185 3186 3187 3189 3191 3193 3195 3197 3198 3200 3201 3202 3203 3205 3206 3207 3210 3212 3214 3215 3216 3218 3220 3221 3222 3223 3223 3224 3224 3225 3225
3160 3162 3164 3166 3169 3171 3173 3175 3177 3179 3181 3184 3187 3187 3187 3188 3191 3193 3195 3198 3199 3200 3202 3204 3205 3207 3208 3209 3211 3213 3215 3216 3217 3220 3221 3223 3223 3224 3225 3225 3225 3226 3227
3160 3163 3164 3167 3168 3171 3173 3175 3177 3179 3182 3184 3186 3187 3189 3191 3192 3194 3196 3198 3199 3201 3203 3205 3206 3207 3209 3211 3212 3214 3216 3217 3218 3221 3223 3224 3224 3225 3226 3225 3226 3227 3228
3160 3162 3165 3167 3169 3172 3173 3175 3177 3180 3181 3183 3185 3187 3190 3192 3193 3195 3197 3199 3200 3202 3203 3205 3207 3208 3210 3211 3213 3214 3216 3219 3220 3221 3223 3224 3225 3226 3226 3227 3227 3227 3228
3159 3162 3164 3167 3168 3171 3173 3174 3176 3178 3180 3183 3186 3188 3191 3193 3195 3196 3198 3199 3201 3202 3204 3205 3207 3208 3211 3212 3213 3215 3216 3219 3220 3222 3223 3225 3225 3226 3227 3227 3228 3228 3228
3159 3161 3164 3166 3168 3170 3173 3175 3176 3178 3181 3183 3186 3188 3191 3193 3195 3197 3198 3200 3201 3202 3204 3205 3207 3209 3212 3214 3215 3215 3217 3219 3221 3222 3223 3224 3225 3226 3226 3228 3228 3228 3228
3160 3160 3163 3165 3167 3169 3172 3175 3177 3179 3181 3183 3185 3188 3190 3192 3194 3197 3198 3199 3201 3202 3204 3206 3207 3209 3211 3214 3215 3216 3217 3219 3221 3223 3223 3224 3225 3226 3226 3227 3229 3229 3228
3160 3160 3162 3164 3167 3169 3171 3174 3177 3179 3182 3184 3186 3188 3191 3193 3195 3197 3199 3199 3201 3203 3204 3206 3207 3209 3211 3212 3214 3216 3217 3219 3221 3222 3223 3223 3224 3226 3226 3227 3228 3229 3229
3159 3160 3161 3163 3166 3169 3171 3173 3176 3178 3181 3185 3187 3189 3192 3194 3195 3197 3198 3200 3202 3204 3205 3206 3207 3209 3210 3212 3214 3215 3217 3218 3220 3220 3222 3223 3224 3225 3225 3227 3228 3229 3229
3159 3159 3160 3162 3164 3167 3171 3174 3176 3179 3181 3184 3187 3189 3191 3193 3195 3197 3198 3200 3201 3203 3204 3205 3207 3208 3209 3210 3212 3213 3216 3217 3218 3219 3220 3222 3223 3224 3224 3225 3227 3228 3229
3161 3160 3160 3161 3163 3166 3168 3172 3175 3177 3180 3182 3185 3187 3190 3192 3194 3196 3198 3199 3200 3201 3202 3204 3206 3207 3207 3209 3211 3212 3214 3215 3218 3218 3219 3220 3221 3222 3223 3224 3225 3226 3227
3162 3161 3162 3161 3162 3164 3166 3169 3172 3174 3177 3180 3182 3185 3187 3190 3192 3194 3196 3197 3198 3200 3202 3203 3204 3205 3206 3207 3209 3210 3211 3213 3216 3217 3218 3219 3219 3220 3221 3221 3222 3223 3225
3159 3161 3162 3162 3163 3164 3166 3167 3169 3171 3174 3176 3178 3181 3184 3186 3189 3191 3194 3195 3197 3199 3200 3201 3201 3203 3204 3205 3206 3207 3209 3210 3212 3213 3215 3217 3218 3218 3218 3219 3220 3220 3222
3157 3158 3159 3162 3162 3163 3164 3165 3166 3168 3170 3172 3175 3177 3180 3182 3184 3188 3190 3192 3193 3195 3196 3197 3199 3200 3200 3201 3202 3203 3204 3207 3208 3210 3212 3213 3214 3215 3216 3216 3217 3218 3218
3152 3155 3156 3159 3161 3161 3161 3164 3167 3167 3168 3169 3172 3174 3176 3179 3181 3183 3185 3188 3190 3192 3194 3195 3196 3196 3196 3197 3197 3199 3201 3203 3204 3206 3208 3209 3210 3212 3212 3213 3213 3214 3215
3150 3152 3155 3156 3158 3160 3161 3163 3165 3167 3168 3170 3170 3172 3174 3176 3178 3180 3182 3184 3186 3188 3189 3190 3191 3192 3192 3192 3192 3195 3196 3200 3201 3202 3204 3206 3207 3208 3208 3209 3209 3209 3209
3143 3146 3149 3153 3155 3157 3159 3161 3161 3163 3164 3166 3167 3169 3172 3175 3176 3178 3180 3182 3183 3185 3186 3187 3187 3187 3189 3188 3189 3191 3192 3194 3198 3199 3200 3201 3202 3203 3203 3204 3204 3204 3205
3140 3139 3141 3142 3148 3151 3154 3155 3158 3160 3162 3165 3167 3169 3170 3173 3175 3176 3177 3178 3179 3181 3182 3183 3184 3183 3185 3185 3185 3187 3189 3192 3193 3195 3196 3196 3197 3198 3198 3198 3198 3199 3199
3134 3133 3134 3135 3136 3140 3146 3149 3152 3155 3159 3160 3162 3166 3168 3169 3171 3173 3174 3175 3176 3177 3178 3179 3179 3179 3180 3181 3181 3182 3184 3186 3187 3189 3190 3192 3192 3192 3192 3192 3192 3192 3193
3128 3127 3125 3127 3129 3131 3135 3140 3145 3148 3151 3154 3158 3161 3164 3166 3168 3169 3170 3171 3172 3172 3173 3174 3173 3172 3173 3174 3175 3176 3178 3180 3183 3184 3184 3187 3187 3188 3187 3188 3188 3188 3187